Showing default

OV1-4, 2121

Orbit data source: Space-Track

OV1-4, 2121 is a payload satellite owned by USAF OAR (US) in LEO that was launched on Wed, 30 Mar 1966 UTC via an ATLAS D launch vehicle from the Air Force Western Test Range (AFWTR). Payload-class satellites include a variety of spacecraft equipped with specific instruments for various scientific and technological missions. These include communications satellites like Starlink; space stations such as the ISS; scientific satellites like the Hubble; Earth observation satellites from companies like Planet Labs, Umbra, and HawkEye 360; GPS; miniature CubeSats for education and research; and military/defense satellites.

Loading next visibility...
Identifier
2121, 1966-025A
Orbit
LEO
Country
Flag of USUS
Related business
Manufacturer
GD/Convair
Mission
Spacecraft
Bus & Motor
OV1, Unknown motor
Mass
87 kg wet, 87 kg dry
Launch date (UTC)
1966-03-30 (60 years ago)
Launch vehicle
ATLAS D
Launch site
Air Force Western Test Range (AFWTR)
Object type
Payload
Rocket body
Debris
Shape & HBR
Unknown
Radar Cross Section
Medium (>0.1 m² and <1 m²)

Expand to show TLE details & history
Last TLE update: 9 hours ago

TLE from 9 hours ago
0 OV1-4
1  2121U 66025A   26035.49680126  .00000311  00000-0  35310-4 0  9998
2  2121 144.5067  56.6898 0082706 138.7232 221.9726 13.87307253 32706
Epoch: 2026-02-04T11:55Z
TLE epoch observation values (Epoch: 2026-02-04T11:55:23.628Z)
Latitude
-0.00005°
Longitude
103.17888°
Altitude
982.303 km
Speed
7.34 km/s
True Right ascension
03h 46m 45s
True Declination
0° 00' 00"
Sunlit
Object was in daylight at epoch
Visualization orbit readout
Latitude
Unknown
Longitude
Unknown
Altitude
Unknown
Speed
Unknown
Apparent Right ascension
Unknown
Apparent Declination
Unknown
Sunlit
N/A
Visualization observer readout
Local Sidereal Time
22:39:26
Azimuth
Unknown
Elevation
Unknown
Doppler factor
Unknown
Orbital elements
Apogee altitude
1,001.598 km
Perigee altitude
880.53 km
Semi-major axis
7,319.201 km
Eccentricity
0.00827
Inclination
144.5067°
RAAN
56.6898°
Arg. of periapsis
138.7232°
True anomaly
221.34362°
Mean anomaly
221.9726°
Eccentric anomaly
221.65763°
Mean motion
3.46615 °/min
Orbital period
103.86 mins
BSTAR
0.00003531
Loading maneuver chart data...
Computing Atmospheric mass density...
Loading historical data...
Loading historical data...
Loading historical data...
Loading historical data...
Loading historical data...
Loading historical data...
Loading historical data...

Documentation

Showing up to 5 results
|